GW5162 Weather Reports


time (UTC)temp
C
wind
direction
speed
KPH
gust
KPH
rain 1hr
cm
rain 24hr
cm
rain mn
cm
humidity
%
barometer
mb
20260906220042 32 196 8.0 9.7 0.00 0.00 0.00 34 1015.1
20260906215540 32 135 4.8 4.8 0.00 0.00 0.00 32 1015.2
20260906215038 32 170 1.6 1.6 0.00 0.00 0.00 32 1015.2
20260906214532 33 192 1.6 3.2 0.00 0.00 0.00 32 1015.3
20260906214027 33 136 1.6 1.6 0.00 0.00 0.00 31 1015.3
20260906213526 32 153 4.8 4.8 0.00 0.00 0.00 32 1015.5
20260906213021 32 192 4.8 4.8 0.00 0.00 0.00 32 1015.4
20260906212514 33 98 4.8 8.0 0.00 0.00 0.00 31 1015.3
20260906212010 32 172 4.8 4.8 0.00 0.00 0.00 33 1015.8
20260906211504 32 112 4.8 4.8 0.00 0.00 0.00 33 1015.7
20260906211000 32 0 0.0 0.0 0.00 0.00 0.00 34 1015.8
20260906210454 32 152 4.8 4.8 0.00 0.00 0.00 32 1015.9
20260906205948 31 173 1.6 1.6 0.00 0.00 0.00 34 1015.8
20260906205444 31 157 1.6 4.8 0.00 0.00 0.00 34 1016.1
20260906204940 31 161 1.6 3.2 0.00 0.00 0.00 32 1016.0
20260906204440 31 186 1.6 3.2 0.00 0.00 0.00 33 1016.1
20260906203938 31 189 1.6 3.2 0.00 0.00 0.00 34 1016.1
20260906203434 31 171 1.6 1.6 0.00 0.00 0.00 35 1016.2
20260906202932 31 203 4.8 8.0 0.00 0.00 0.00 37 1016.1
20260906202431 31 145 4.8 4.8 0.00 0.00 0.00 36 1016.2
20260906201926 31 343 3.2 3.2 0.00 0.00 0.00 32 1016.4
20260906201420 32 33 1.6 3.2 0.00 0.00 0.00 32 1016.5
20260906200915 31 353 3.2 3.2 0.00 0.00 0.00 31 1016.5
20260906200412 31 112 3.2 3.2 0.00 0.00 0.00 32 1016.6
20260906195911 32 97 4.8 4.8 0.00 0.00 0.00 33 1016.5
20260906195408 32 184 1.6 3.2 0.00 0.00 0.00 33 1016.7
20260906194903 30 110 1.6 3.2 0.00 0.00 0.00 35 1016.6
20260906194359 31 56 1.6 1.6 0.00 0.00 0.00 37 1016.7
20260906193854 31 140 0.0 1.6 0.00 0.00 0.00 38 1016.7
20260906193349 32 112 1.6 1.6 0.00 0.00 0.00 37 1016.7
20260906192845 32 60 0.0 0.0 0.00 0.00 0.00 36 1016.9
20260906192345 30 170 1.6 1.6 0.00 0.00 0.00 38 1016.7
20260906191844 31 124 0.0 0.0 0.00 0.00 0.00 37 1017.0
20260906191339 32 57 3.2 3.2 0.00 0.00 0.00 40 1017.2
20260906190838 31 303 1.6 3.2 0.00 0.00 0.00 41 1017.2
20260906190338 30 115 1.6 1.6 0.00 0.00 0.00 42 1017.2
20260906185833 31 155 0.0 0.0 0.00 0.00 0.00 40 1017.4
20260906185332 30 30 0.0 0.0 0.00 0.00 0.00 41 1017.3
20260906184827 29 103 0.0 1.6 0.00 0.00 0.00 44 1017.6
20260906184327 29 348 6.4 8.0 0.00 0.00 0.00 44 1017.7
20260906183822 29 75 1.6 1.6 0.00 0.00 0.00 42 1017.6
20260906183318 30 108 8.0 9.7 0.00 0.00 0.00 41 1018.0
20260906182818 29 95 1.6 1.6 0.00 0.00 0.00 43 1018.0
20260906182314 29 90 0.0 0.0 0.00 0.00 0.00 44 1018.0
20260906181809 28 8 1.6 1.6 0.00 0.00 0.00 44 1018.2
20260906181305 28 105 1.6 1.6 0.00 0.00 0.00 46 1018.3
20260906180800 27 131 4.8 4.8 0.00 0.00 0.00 46 1018.3
20260906180255 28 116 4.8 4.8 0.00 0.00 0.00 44 1018.6
20260906175752 27 258 0.0 1.6 0.00 0.00 0.00 46 1018.4
20260906175249 27 342 1.6 1.6 0.00 0.00 0.00 47 1018.7
20260906174747 28 84 3.2 3.2 0.00 0.00 0.00 46 1019.0
20260906174246 27 32 3.2 3.2 0.00 0.00 0.00 49 1018.9
20260906173741 26 338 3.2 3.2 0.00 0.00 0.00 52 1019.1
20260906173237 26 152 1.6 1.6 0.00 0.00 0.00 51 1019.0
20260906172736 26 72 1.6 3.2 0.00 0.00 0.00 53 1019.4
20260906172232 26 338 4.8 4.8 0.00 0.00 0.00 56 1019.4
20260906171732 26 125 1.6 1.6 0.00 0.00 0.00 55 1019.6
20260906171227 25 5 1.6 1.6 0.00 0.00 0.00 57 1019.5
20260906170723 26 135 4.8 4.8 0.00 0.00 0.00 57 1019.4
20260906170218 25 245 1.6 1.6 0.00 0.00 0.00 57 1019.5
20260906165714 25 179 8.0 9.7 0.00 0.00 0.00 57 1019.5
20260906165209 25 268 1.6 1.6 0.00 0.00 0.00 56 1019.7
20260906164708 26 97 3.2 4.8 0.00 0.00 0.00 55 1019.8
20260906164204 26 347 0.0 0.0 0.00 0.00 0.00 55 1019.7
20260906163659 24 220 0.0 0.0 0.00 0.00 0.00 60 1019.5
20260906163155 23 8 1.6 1.6 0.00 0.00 0.00 62 1019.8
20260906162652 23 359 0.0 0.0 0.00 0.00 0.00 62 1019.7
20260906162151 25 124 1.6 3.2 0.00 0.00 0.00 59 1019.8
20260906161647 24 97 1.6 1.6 0.00 0.00 0.00 60 1019.5
20260906161146 25 77 4.8 4.8 0.00 0.00 0.00 59 1019.7
20260906160645 23 105 0.0 1.6 0.00 0.00 0.00 60 1019.5
20260906160144 23 338 0.0 0.0 0.00 0.00 0.00 62 1019.7
20260906155642 23 84 1.6 1.6 0.00 0.00 0.00 60 1019.7
20260906155138 24 318 4.8 4.8 0.00 0.00 0.00 59 1019.7
20260906154633 23 117 0.0 0.0 0.00 0.00 0.00 61 1020.0
20260906154132 22 67 0.0 1.6 0.00 0.00 0.00 63 1019.8
20260906153632 22 336 1.6 1.6 0.00 0.00 0.00 65 1020.0
20260906153127 22 7 1.6 1.6 0.00 0.00 0.00 64 1020.0
20260906152627 22 40 1.6 1.6 0.00 0.00 0.00 65 1020.0
20260906152120 21 15 1.6 1.6 0.00 0.00 0.00 67 1019.7
20260906151615 21 82 0.0 1.6 0.00 0.00 0.00 67 1020.0
20260906151112 21 125 3.2 3.2 0.00 0.00 0.00 69 1020.1
20260906150607 21 356 1.6 1.6 0.00 0.00 0.00 70 1020.0
20260906145600 20 15 3.2 3.2 0.00 0.00 0.00 73 1020.0
20260906145055 20 94 0.0 0.0 0.00 0.00 0.00 75 1020.0
20260906144550 20 120 0.0 1.6 0.00 0.00 0.00 75 1020.0
20260906144045 20 6 0.0 0.0 0.00 0.00 0.00 74 1020.0
20260906143540 20 52 3.2 3.2 0.00 0.00 0.00 73 1020.1
20260906143037 20 48 0.0 0.0 0.00 0.00 0.00 74 1020.1
20260906142531 20 354 6.4 8.0 0.00 0.00 0.00 75 1020.0
20260906142027 19 86 4.8 8.0 0.00 0.00 0.00 77 1020.1
20260906141526 19 37 3.2 4.8 0.00 0.00 0.00 77 1020.1
20260906141021 19 21 6.4 9.7 0.00 0.00 0.00 78 1019.8
20260906140515 18 346 4.8 4.8 0.00 0.00 0.00 78 1019.8
20260906140014 18 23 1.6 3.2 0.00 0.00 0.00 79 1020.1
20260906135511 18 44 0.0 1.6 0.00 0.00 0.00 80 1020.2
20260906135007 17 53 6.4 8.0 0.00 0.00 0.00 81 1019.7
20260906134502 17 341 3.2 3.2 0.00 0.00 0.00 82 1020.0
20260906134002 17 23 0.0 0.0 0.00 0.00 0.00 83 1020.1
20260906133458 17 327 0.0 0.0 0.00 0.00 0.00 84 1020.1
20260906132954 16 0 0.0 1.6 0.00 0.00 0.00 84 1019.8
20260906132454 16 357 0.0 1.6 0.00 0.00 0.00 84 1020.0
20260906131949 16 355 0.0 0.0 0.00 0.00 0.00 85 1019.7
20260906131444 16 44 0.0 0.0 0.00 0.00 0.00 84 1019.8
20260906130940 15 53 0.0 0.0 0.00 0.00 0.00 84 1020.0
20260906130439 15 154 0.0 0.0 0.00 0.00 0.00 83 1020.0
20260906125934 15 175 0.0 0.0 0.00 0.00 0.00 83 1020.1
20260906125431 15 193 0.0 0.0 0.00 0.00 0.00 82 1019.7
20260906124925 16 160 0.0 0.0 0.00 0.00 0.00 82 1019.5
20260906124421 16 209 0.0 0.0 0.00 0.00 0.00 82 1019.7
20260906123916 16 241 0.0 0.0 0.00 0.00 0.00 81 1019.7
20260906123415 16 192 0.0 0.0 0.00 0.00 0.00 81 1019.7
20260906122915 16 194 0.0 0.0 0.00 0.00 0.00 81 1019.5
20260906122410 16 32 0.0 0.0 0.00 0.00 0.00 81 1019.7
20260906121907 16 150 0.0 0.0 0.00 0.00 0.00 81 1019.4
20260906121403 16 217 0.0 0.0 0.00 0.00 0.00 81 1019.5
20260906120859 16 287 0.0 0.0 0.00 0.00 0.00 81 1019.5
20260906120354 15 156 0.0 0.0 0.00 0.00 0.00 81 1019.5
20260906115850 15 285 0.0 0.0 0.00 0.00 0.00 81 1019.1
20260906115345 15 300 0.0 0.0 0.00 0.00 0.00 80 1019.4
20260906114844 15 302 0.0 0.0 0.00 0.00 0.00 80 1019.3
20260906114340 15 301 0.0 0.0 0.00 0.00 0.00 79 1019.1
20260906113841 15 302 0.0 0.0 0.00 0.00 0.00 78 1019.4
20260906113340 16 302 0.0 0.0 0.00 0.00 0.00 78 1019.4
20260906112835 16 302 0.0 0.0 0.00 0.00 0.00 77 1019.4
20260906112331 16 302 0.0 0.0 0.00 0.00 0.00 77 1019.3
20260906111826 15 251 0.0 0.0 0.00 0.00 0.00 78 1019.3
20260906111325 15 165 0.0 0.0 0.00 0.00 0.00 78 1019.3
20260906110821 15 165 0.0 0.0 0.00 0.00 0.00 77 1019.0
20260906110316 15 182 0.0 0.0 0.00 0.00 0.00 77 1019.1
20260906105815 15 262 0.0 0.0 0.00 0.00 0.00 76 1019.1
20260906105311 16 286 0.0 0.0 0.00 0.00 0.00 76 1019.4
20260906104806 16 261 0.0 0.0 0.00 0.00 0.00 75 1019.3
20260906104306 16 180 0.0 0.0 0.00 0.00 0.00 73 1019.6
20260906103804 16 251 0.0 0.0 0.00 0.00 0.00 72 1019.5
20260906103303 17 188 0.0 0.0 0.00 0.00 0.00 70 1019.4
20260906102759 17 75 0.0 0.0 0.00 0.00 0.00 70 1019.5
20260906102257 17 7 0.0 0.0 0.00 0.00 0.00 69 1019.1
20260906101753 17 8 1.6 1.6 0.00 0.00 0.00 68 1019.3
20260906101248 18 83 0.0 0.0 0.00 0.00 0.00 67 1019.4
20260906100743 18 324 0.0 0.0 0.00 0.00 0.00 66 1019.1
20260906100242 17 29 0.0 1.6 0.00 0.00 0.00 66 1019.4
20260906095738 17 108 0.0 0.0 0.00 0.00 0.00 66 1019.4
20260906095233 18 140 0.0 0.0 0.00 0.00 0.00 65 1019.1
20260906094732 18 34 0.0 0.0 0.00 0.00 0.00 65 1019.3
20260906094227 18 92 0.0 0.0 0.00 0.00 0.00 65 1019.3
20260906093724 18 113 0.0 0.0 0.00 0.00 0.00 64 1019.0
20260906093219 18 133 0.0 0.0 0.00 0.00 0.00 63 1019.3
20260906092715 18 13 1.6 1.6 0.00 0.00 0.00 63 1019.1
20260906092214 19 43 0.0 0.0 0.00 0.00 0.00 62 1018.8
20260906091711 19 7 4.8 4.8 0.00 0.00 0.00 62 1018.8
20260906091207 19 20 0.0 0.0 0.00 0.00 0.00 60 1018.3
20260906090703 20 28 3.2 4.8 0.00 0.00 0.00 59 1018.2
20260906090202 20 39 3.2 3.2 0.00 0.00 0.00 59 1018.3
20260906085701 20 4 1.6 3.2 0.00 0.00 0.00 58 1018.3
20260906085200 20 15 1.6 3.2 0.00 0.00 0.00 58 1018.3
20260906084655 20 14 4.8 8.0 0.00 0.00 0.00 57 1018.2
20260906084154 20 332 3.2 4.8 0.00 0.00 0.00 57 1018.4
20260906083649 20 60 1.6 3.2 0.00 0.00 0.00 57 1018.4
20260906083145 20 39 0.0 0.0 0.00 0.00 0.00 57 1018.6
20260906082640 20 7 3.2 3.2 0.00 0.00 0.00 56 1018.4
20260906082136 20 37 0.0 0.0 0.00 0.00 0.00 56 1018.2
20260906081631 20 28 0.0 1.6 0.00 0.00 0.00 56 1018.4
20260906081126 21 342 3.2 3.2 0.00 0.00 0.00 56 1018.4
20260906080623 21 16 0.0 1.6 0.00 0.00 0.00 55 1018.4
20260906080119 21 18 1.6 1.6 0.00 0.00 0.00 54 1018.3
20260906075612 21 11 1.6 3.2 0.00 0.00 0.00 54 1018.6
20260906075107 21 355 0.0 0.0 0.00 0.00 0.00 53 1018.4
20260906074602 21 318 0.0 1.6 0.00 0.00 0.00 53 1018.6
20260906074101 21 359 3.2 3.2 0.00 0.00 0.00 51 1018.6
20260906073556 21 26 3.2 3.2 0.00 0.00 0.00 50 1018.4
20260906073052 21 351 1.6 1.6 0.00 0.00 0.00 50 1018.4
20260906072546 21 322 0.0 1.6 0.00 0.00 0.00 49 1018.6
20260906072043 21 36 0.0 1.6 0.00 0.00 0.00 48 1018.4
20260906071538 21 45 0.0 1.6 0.00 0.00 0.00 48 1018.2
20260906071033 21 24 1.6 3.2 0.00 0.00 0.00 49 1018.3
20260906070530 22 106 0.0 0.0 0.00 0.00 0.00 48 1018.4
20260906070025 21 10 3.2 3.2 0.00 0.00 0.00 47 1018.6
20260906065524 20 84 0.0 0.0 0.00 0.00 0.00 50 1018.4
20260906065020 20 65 0.0 0.0 0.00 0.00 0.00 51 1018.2
20260906064516 21 254 0.0 0.0 0.00 0.00 0.00 51 1018.1
20260906064011 21 274 0.0 0.0 0.00 0.00 0.00 50 1018.1
20260906063506 21 9 0.0 0.0 0.00 0.00 0.00 50 1018.4
20260906063001 22 307 0.0 0.0 0.00 0.00 0.00 50 1018.4
20260906062456 22 336 1.6 3.2 0.00 0.00 0.00 48 1018.3
20260906061951 21 62 0.0 0.0 0.00 0.00 0.00 49 1018.4
20260906061447 21 0 1.6 3.2 0.00 0.00 0.00 52 1018.6
20260906060942 21 338 0.0 0.0 0.00 0.00 0.00 52 1018.4
20260906060438 21 4 3.2 3.2 0.00 0.00 0.00 51 1018.6
20260906055934 21 20 1.6 1.6 0.00 0.00 0.00 51 1018.9
20260906055430 20 36 1.6 1.6 0.00 0.00 0.00 52 1018.8
20260906054925 20 308 0.0 0.0 0.00 0.00 0.00 52 1018.8
20260906054421 20 296 0.0 0.0 0.00 0.00 0.00 55 1018.7
20260906053917 21 267 1.6 1.6 0.00 0.00 0.00 55 1018.9
20260906053412 22 209 0.0 1.6 0.00 0.00 0.00 50 1018.9
20260906052907 22 159 0.0 0.0 0.00 0.00 0.00 46 1018.4
20260906052404 22 132 0.0 0.0 0.00 0.00 0.00 45 1018.4
20260906051900 22 121 3.2 3.2 0.00 0.00 0.00 44 1018.6
20260906051400 22 112 1.6 1.6 0.00 0.00 0.00 45 1018.2
20260906050856 23 111 3.2 3.2 0.00 0.00 0.00 45 1018.4
20260906050350 23 141 1.6 3.2 0.00 0.00 0.00 44 1018.3
20260906045849 22 18 0.0 0.0 0.00 0.00 0.00 45 1018.1
20260906045344 22 91 1.6 1.6 0.00 0.00 0.00 47 1018.2
20260906044840 21 70 0.0 0.0 0.00 0.00 0.00 48 1018.4
20260906044335 21 24 0.0 0.0 0.00 0.00 0.00 48 1018.3
20260906043831 22 17 0.0 0.0 0.00 0.00 0.00 48 1018.1
20260906043327 22 344 0.0 0.0 0.00 0.00 0.00 47 1018.3
20260906042826 22 214 0.0 0.0 0.00 0.00 0.00 45 1018.3
20260906042325 23 172 3.2 4.8 0.00 0.00 0.00 44 1018.2
20260906041821 23 201 1.6 3.2 0.00 0.00 0.00 44 1018.0
20260906041317 23 86 0.0 0.0 0.00 0.00 0.00 44 1017.4
20260906040812 23 48 0.0 0.0 0.00 0.00 0.00 43 1017.6
20260906040307 23 79 0.0 1.6 0.00 0.00 0.00 43 1017.4
20260906035802 24 21 0.0 0.0 0.00 0.00 0.00 42 1017.4
20260906035258 24 95 0.0 1.6 0.00 0.00 0.00 41 1017.3
20260906034758 23 28 1.6 1.6 0.00 0.00 0.00 42 1017.0
20260906034257 23 322 0.0 0.0 0.00 0.00 0.00 46 1017.2
20260906033753 24 303 1.6 1.6 0.00 0.00 0.00 44 1017.5
20260906033253 25 330 0.0 1.6 0.00 0.00 0.00 40 1017.2
20260906032749 25 343 3.2 4.8 0.00 0.00 0.00 40 1017.4
20260906032249 25 284 0.0 0.0 0.00 0.00 0.00 39 1017.3
20260906031744 25 355 1.6 1.6 0.00 0.00 0.00 37 1016.9
20260906031241 25 29 3.2 8.0 0.00 0.00 0.00 37 1017.0
20260906030740 25 37 4.8 8.0 0.00 0.00 0.00 37 1017.0
20260906030235 25 15 1.6 9.7 0.00 0.00 0.00 37 1016.8
20260906025734 26 70 0.0 0.0 0.00 0.00 0.00 36 1016.6
20260906025229 26 25 1.6 3.2 0.00 0.00 0.00 35 1016.6
20260906024728 26 30 3.2 3.2 0.00 0.00 0.00 34 1016.5
20260906024227 27 38 1.6 1.6 0.00 0.00 0.00 33 1016.6
20260906023723 27 8 3.2 3.2 0.00 0.00 0.00 33 1016.6
20260906023219 27 21 1.6 1.6 0.00 0.00 0.00 32 1016.4
20260906022714 26 3 1.6 1.6 0.00 0.00 0.00 33 1016.5
20260906022209 26 147 0.0 0.0 0.00 0.00 0.00 35 1016.7
20260906021705 26 15 0.0 0.0 0.00 0.00 0.00 34 1016.6
20260906021203 27 122 0.0 1.6 0.00 0.00 0.00 34 1016.4
20260906020653 27 256 3.2 3.2 0.00 0.00 0.00 34 1016.5
20260906020148 27 264 0.0 0.0 0.00 0.00 0.00 34 1016.4
20260906015647 27 290 1.6 3.2 0.00 0.00 0.00 33 1016.2
20260906015146 26 322 3.2 3.2 0.00 0.00 0.00 34 1016.2
20260906014646 26 320 1.6 3.2 0.00 0.00 0.00 34 1016.1
20260906014142 26 308 3.2 3.2 0.00 0.00 0.00 34 1016.0
20260906013638 26 243 0.0 0.0 0.00 0.00 0.00 34 1015.8
20260906013133 27 296 3.2 3.2 0.00 0.00 0.00 34 1015.9
20260906012633 27 324 1.6 1.6 0.00 0.00 0.00 33 1015.8
20260906012128 27 302 4.8 4.8 0.00 0.00 0.00 33 1016.0
20260906011624 28 350 4.8 4.8 0.00 0.00 0.00 32 1015.9
20260906011118 28 318 6.4 11.3 0.00 0.00 0.00 32 1015.9
20260906010614 28 349 8.0 9.7 0.00 0.00 0.00 30 1015.8
20260906010110 28 296 8.0 9.7 0.00 0.00 0.00 31 1016.0
20260906005609 28 1 4.8 8.0 0.00 0.00 0.00 31 1016.2
20260906005109 28 2 1.6 3.2 0.00 0.00 0.00 31 1016.2
20260906004608 29 297 11.3 14.5 0.00 0.00 0.00 30 1016.4
20260906004103 29 104 4.8 8.0 0.00 0.00 0.00 30 1016.1
20260906003558 29 310 3.2 4.8 0.00 0.00 0.00 30 1016.4
20260906003054 30 292 4.8 9.7 0.00 0.00 0.00 29 1016.4
20260906002548 30 294 4.8 8.0 0.00 0.00 0.00 27 1016.2
20260906002043 30 296 1.6 3.2 0.00 0.00 0.00 27 1015.8
20260906001538 30 291 3.2 4.8 0.00 0.00 0.00 27 1016.0
20260906001032 29 330 1.6 1.6 0.00 0.00 0.00 30 1016.2
20260906000529 30 270 1.6 1.6 0.00 0.00 0.00 29 1016.1
20260906000024 30 254 3.2 8.0 0.00 0.00 0.00 29 1016.4
20260905235523 30 306 4.8 8.0 0.00 0.00 0.00 29 1016.0
20260905235019 30 282 1.6 3.2 0.00 0.00 0.00 29 1016.0
20260905234515 30 299 0.0 1.6 0.00 0.00 0.00 29 1016.1
20260905234014 30 281 3.2 4.8 0.00 0.00 0.00 29 1016.1
20260905233510 31 291 3.2 3.2 0.00 0.00 0.00 29 1015.9
20260905233009 31 282 0.0 1.6 0.00 0.00 0.00 30 1016.0
20260905232505 32 225 0.0 0.0 0.00 0.00 0.00 29 1016.1
20260905232000 32 242 0.0 0.0 0.00 0.00 0.00 28 1016.0
20260905231455 32 268 1.6 1.6 0.00 0.00 0.00 26 1015.7
20260905230946 33 321 0.0 1.6 0.00 0.00 0.00 21 1015.8
20260905230444 33 307 1.6 1.6 0.00 0.00 0.00 21 1015.5
20260905225942 33 27 0.0 0.0 0.00 0.00 0.00 22 1015.8
20260905225438 32 5 0.0 0.0 0.00 0.00 0.00 21 1015.4
20260905224933 33 36 0.0 0.0 0.00 0.00 0.00 21 1015.7
20260905224428 33 29 0.0 0.0 0.00 0.00 0.00 21 1015.7
20260905223922 34 352 3.2 4.8 0.00 0.00 0.00 20 1015.7
20260905223421 33 339 4.8 4.8 0.00 0.00 0.00 21 1015.7
20260905222920 34 310 3.2 3.2 0.00 0.00 0.00 20 1015.5
20260905222419 34 354 4.8 4.8 0.00 0.00 0.00 20 1015.5
20260905221916 33 106 3.2 4.8 0.00 0.00 0.00 21 1015.8
20260905221412 33 324 6.4 8.0 0.00 0.00 0.00 21 1015.7
20260905220908 33 26 6.4 8.0 0.00 0.00 0.00 20 1015.8